Location: Bruderhein
(53.8035°N, 112.9265°W)
Time: 10:23:11
(UTC+00:00)

Meteor 1-19 Rocket - Pass Details

Date: 05 December 2023
Orbit: 806 x 928 km, 81.2° (Epoch: 04 March)

Event Time Altitude Azimuth Distance (km) Brightness Sun altitude
Rises 13:17:48 0° 348° (NNW) 3,592 7.2 -18.5°
Reaches altitude 10° 13:20:29 10° 356° (N) 2,645 6.6 -18.1°
Maximum altitude 13:26:10 40° 65° (ENE) 1,334 5.6 -17.3°
Drops below altitude 10° 13:31:44 10° 134° (SE) 2,597 7.7 -16.5°
Sets 13:34:20 0° 142° (SE) 3,520 8.3 -16.2°
